sat.trackr.live / text

‹ back to catalog

NUSAT-26 (M SOMERVILLE)

NORAD 52184 · 2022-033AD

PAYLOAD ACTIVE UNKNOWN

§ Identity

Operator
Country
ARGN
Launch date
2022-04-01
Launch site
AFETR
Launch vehicle
Mass (kg)
RCS (m²)

External: N2YO · Heavens-Above · Gunter

§ Orbital elements

Epoch: 2026-05-25T04:51:56.617632Z

Period
93.43 min
Inclination
97.2350°
Eccentricity
0.0004557
Mean motion
15.41319872 rev/d
Perigee alt
439.1 km
Apogee alt
445.3 km
Semi-major
6,820.3 km
B*
3.5951e-4
RAAN
224.4763°
Arg perigee
340.5117°
Mean anomaly
19.5955°
Rev number
10,116

§ Raw data

NUSAT-26 (M SOMERVILLE)1 52184U 22033AD  26145.20273863  .00014913  00000+0  35951-3 0  99922 52184  97.2350 224.4763 0004557 340.5117  19.5955 15.41319872101162

JSON: /api/v1/satellites/52184 · /tle

For live sub-satellite position, see the globe view (requires WebGL).

§ Visibility from observer

Set your observer location to see the next 7 days of passes ≥ 10°. The values pass through the URL so the page stays shareable.

No JS? Fill the form by hand. The geolocation button needs JavaScript.